GFSSGP_850_rhum_039.txt.gz
RH
19 21 22 16 14 10 11 9 6 9 10 16 27 29 14 31 30 44 80 85 84 89 88 72 98 98 85 84 82 75 75 56 29 8 12 14 15 16 19 31 38 41 39 39 39 40 42 41 35
28 18 16 13 13 11 9 6 8 7 18 34 43 37 33 45 59 81 94 92 96 91 93 94 97 98 89 87 82 78 65 35 10 10 14 15 15 17 29 36 41 44 41 40 40 41 42 42 36
22 19 15 12 11 10 10 8 7 17 22 29 30 42 50 66 77 77 86 92 100 93 94 90 78 88 86 86 83 71 42 16 9 14 15 16 18 28 34 34 38 44 42 41 42 41 43 39 39
21 18 12 9 10 7 8 9 15 16 21 28 28 46 67 62 68 50 88 91 88 98 83 70 61 80 85 85 72 46 24 10 13 16 17 19 26 32 33 34 38 42 42 41 40 43 42 44 43
16 12 11 12 9 8 7 9 18 20 28 32 34 44 64 94 100 88 65 90 77 100 84 69 70 82 80 63 49 30 13 13 17 16 23 29 31 31 32 34 37 38 37 37 41 44 48 51 50
14 10 12 10 8 7 10 18 21 28 32 35 35 47 81 99 99 94 97 88 96 99 99 76 71 64 57 50 34 17 12 15 18 20 35 31 30 31 33 36 37 37 39 42 46 51 54 56 55
13 11 11 9 11 19 22 27 26 26 28 34 45 44 86 98 92 100 100 98 100 98 100 75 86 74 54 37 21 14 18 20 22 29 32 28 30 34 36 38 39 41 46 50 53 57 58 57 57
12 10 10 10 21 39 24 28 34 33 36 52 50 45 59 89 98 100 100 100 99 98 100 84 92 77 47 32 24 19 27 26 26 32 32 31 38 39 40 43 44 47 50 54 58 61 61 61 60
12 12 11 12 13 19 19 23 37 46 42 51 67 82 94 97 97 100 99 99 100 100 100 84 93 82 57 34 42 37 26 29 30 34 41 43 47 60 69 53 51 52 55 59 61 63 65 64 60
11 12 10 10 10 13 14 23 31 36 39 55 92 98 100 100 99 100 100 99 100 100 100 100 99 88 66 64 46 33 45 50 36 46 52 62 67 76 64 54 55 56 61 65 65 66 65 61 55
11 13 10 10 14 14 16 22 32 33 35 50 84 98 99 99 100 97 100 100 98 100 98 100 97 91 68 56 67 60 43 73 40 52 72 66 67 72 51 52 60 66 67 67 66 65 65 61 59
13 11 11 12 14 18 21 25 28 40 50 66 90 100 98 98 99 98 99 98 99 100 100 100 100 86 62 57 82 77 77 47 39 42 46 54 51 53 57 69 78 71 75 73 72 73 65 56 41
13 12 14 16 19 21 28 27 32 46 71 85 99 99 99 99 99 100 100 100 100 100 100 100 99 96 89 93 83 62 56 52 42 37 36 39 42 78 79 79 79 75 79 77 75 71 69 53 47
14 15 18 19 23 27 28 30 34 48 63 78 92 98 99 99 97 94 100 99 100 100 100 99 92 92 86 73 70 73 74 56 57 40 41 47 74 87 82 86 78 77 77 75 74 72 62 56 57
14 18 16 18 22 23 28 40 32 46 59 54 54 74 78 96 94 94 100 98 98 98 90 86 88 93 91 78 74 69 67 66 40 41 44 79 80 81 87 82 80 79 77 77 72 69 58 57 50
14 17 24 19 19 20 44 71 34 42 46 41 44 61 73 85 89 96 99 86 86 90 96 90 86 78 78 73 70 66 71 55 44 68 85 88 88 95 82 86 84 82 80 78 73 60 57 52 46
14 18 22 24 19 20 32 67 33 38 42 40 44 46 52 66 63 70 83 89 94 93 95 90 85 65 68 77 83 71 66 65 59 71 87 91 95 94 90 87 87 80 81 75 70 62 52 50 45
16 15 17 45 21 20 20 23 31 36 40 41 38 36 46 60 65 64 68 74 80 86 84 85 89 69 63 64 75 78 72 81 73 89 90 87 92 76 78 86 91 86 78 77 66 60 49 46 50
14 14 15 22 18 20 21 18 31 36 34 41 44 38 41 43 49 63 60 68 71 78 80 84 86 91 94 89 68 66 70 74 78 80 92 91 92 78 80 89 91 85 76 72 68 58 52 55 57
15 15 14 13 13 16 16 15 15 29 33 34 36 38 34 35 42 55 64 65 68 73 76 77 81 86 91 86 72 65 66 70 79 83 89 98 96 92 93 90 89 80 74 74 62 58 54 59 61
15 16 14 16 16 15 15 15 13 18 29 35 34 35 36 34 35 44 52 61 70 72 77 79 77 82 95 86 71 67 70 76 84 86 89 97 100 91 89 86 84 81 76 78 64 47 50 64 69
18 13 16 17 18 21 15 24 24 16 22 28 33 33 32 34 34 36 46 54 60 66 70 76 76 79 88 83 76 67 69 87 94 94 92 95 92 84 84 80 81 82 80 72 56 52 56 58 72
18 17 17 18 18 19 16 17 20 12 16 19 24 30 30 30 32 33 38 46 55 58 64 70 72 70 72 77 74 76 75 80 82 99 98 98 90 80 76 78 80 83 79 61 58 60 53 62 65
14 20 19 18 20 28 18 18 20 17 13 12 15 22 27 28 29 30 32 39 44 51 60 65 68 68 68 77 78 84 83 88 86 98 98 96 92 80 81 81 78 74 68 60 58 56 53 66 65
18 22 31 30 31 31 17 20 16 27 11 11 12 15 23 25 26 27 29 33 40 49 57 64 67 68 69 74 90 70 60 77 69 86 83 96 95 92 81 78 80 79 68 66 70 66 54 72 57
20 20 32 83 38 27 22 21 15 11 11 12 12 14 14 22 25 26 24 31 38 45 57 67 71 73 74 83 54 67 57 65 66 75 80 96 100 91 81 86 92 84 74 71 73 58 65 68 71
21 23 18 31 28 29 20 16 12 10 11 12 13 20 20 18 21 25 24 25 33 40 49 66 72 79 89 86 61 57 50 54 68 80 98 100 96 82 95 97 95 88 76 73 73 59 66 60 52
19 20 27 26 39 44 22 19 17 14 13 12 11 13 19 21 20 21 24 26 28 35 42 57 74 78 90 69 70 57 60 62 77 90 88 97 93 99 100 94 93 93 85 82 65 59 62 46 76
24 27 23 22 26 39 40 22 15 14 13 12 12 13 14 17 25 28 28 28 31 33 41 52 71 75 89 92 92 67 66 70 72 86 100 99 98 96 98 95 96 94 87 93 65 65 53 81 89
18 21 22 37 31 29 33 29 13 13 12 14 14 15 15 18 21 29 35 39 40 42 44 53 70 73 74 91 97 90 98 98 88 100 100 99 100 100 100 99 99 96 98 87 72 64 81 82 86

GFSSGP_850_rhum_042.txt.gz
RH
17 25 23 24 18 16 14 11 7 6 11 37 49 60 43 61 23 53 83 48 56 90 85 97 94 77 75 75 70 68 68 57 31 7 11 13 14 16 26 34 34 63 36 39 40 35 30 30 32
16 29 17 14 18 18 12 10 8 11 32 24 20 48 55 82 70 76 87 74 58 82 74 95 99 97 83 79 74 71 69 45 14 10 14 14 16 24 35 36 35 35 36 39 39 37 34 35 39
16 22 16 15 16 15 11 9 10 14 19 33 34 26 54 94 58 78 81 91 96 84 76 88 96 96 90 83 77 75 62 30 8 14 15 16 22 34 38 40 38 38 39 39 41 37 38 36 39
28 18 15 14 10 8 8 9 10 14 35 29 21 51 79 96 82 53 83 69 80 91 84 83 94 94 94 90 80 77 47 13 11 16 16 21 32 35 37 43 41 41 38 40 40 43 44 40 36
18 13 14 13 12 7 10 10 10 17 55 36 32 68 73 81 84 74 80 93 46 76 66 72 91 79 73 88 84 64 28 10 16 17 18 32 34 33 35 41 39 36 37 40 45 49 51 48 33
16 13 13 13 11 22 37 42 28 16 41 37 37 64 62 62 92 70 76 88 87 86 68 75 78 95 86 91 82 45 14 14 19 19 25 36 34 34 38 38 38 35 40 45 51 54 54 50 39
13 13 13 11 11 26 46 32 50 43 52 67 46 83 88 96 100 97 98 88 97 96 84 86 91 99 100 89 54 23 14 19 21 25 36 36 35 36 38 38 37 41 45 51 56 57 56 49 41
12 11 12 9 16 23 37 43 43 25 72 46 59 53 82 84 96 100 88 89 100 100 100 96 99 100 93 61 31 22 22 22 29 36 41 39 37 39 38 39 44 48 52 56 59 60 58 53 43
11 13 14 12 12 17 19 32 41 36 33 72 96 99 98 100 99 99 98 98 100 99 95 75 86 91 78 72 34 24 22 21 40 42 39 41 44 46 45 45 49 53 57 59 61 63 58 52 48
10 14 13 9 9 12 11 18 57 47 27 76 66 98 97 100 100 99 99 99 100 100 99 96 98 98 92 45 49 32 21 38 45 41 47 60 66 64 58 54 55 58 62 62 64 60 61 65 57
10 13 11 9 13 12 13 35 36 31 52 80 62 99 98 99 98 99 99 100 99 100 98 100 98 100 81 63 54 29 43 58 44 67 67 67 75 65 57 54 57 64 67 64 64 66 69 66 53
11 10 10 10 12 14 13 25 44 52 65 80 92 98 99 99 96 99 98 100 100 99 100 100 100 95 62 43 38 60 58 43 67 55 63 63 73 51 44 44 56 69 70 66 71 73 67 53 39
11 10 11 12 16 16 19 22 27 50 72 86 94 96 99 98 99 99 100 98 100 100 99 100 100 95 66 53 64 57 47 70 56 51 67 62 44 40 44 64 69 73 74 73 74 72 60 43 43
13 13 12 14 14 17 23 65 60 71 68 83 85 98 97 97 99 100 100 100 100 100 100 99 98 92 86 98 88 89 86 74 57 56 50 46 47 47 77 83 75 77 75 77 75 73 58 57 47
12 14 13 15 16 21 31 43 71 55 55 52 63 86 77 89 87 99 100 98 99 99 98 100 99 100 89 80 82 75 77 66 57 55 56 54 50 80 83 79 80 78 78 76 74 70 59 48 48
15 13 18 20 19 28 33 55 39 44 48 49 50 65 87 80 96 96 95 99 98 89 100 100 98 88 89 84 72 68 70 63 59 51 50 46 47 83 81 81 82 79 78 77 74 69 58 57 49
14 18 17 19 17 26 32 64 49 46 38 45 54 66 78 96 94 92 88 94 90 89 86 91 88 79 80 78 70 72 71 72 69 52 54 45 50 92 78 84 80 82 81 80 75 62 57 51 47
18 20 18 24 23 18 48 59 63 58 34 36 40 41 56 61 80 80 85 89 92 84 76 79 76 78 72 67 87 86 73 58 52 43 69 82 70 86 80 84 85 84 84 79 74 64 56 51 46
12 16 20 22 24 23 29 46 64 53 37 36 34 38 47 56 59 75 79 77 85 90 78 65 71 85 93 95 81 72 70 75 50 66 84 78 69 92 82 86 87 83 85 78 74 64 57 47 47
12 14 16 12 15 15 15 15 32 29 33 37 41 40 44 54 64 64 73 76 84 80 72 63 59 72 70 63 60 52 46 38 43 44 61 64 75 91 85 86 92 76 83 77 73 67 56 52 58
13 15 15 20 19 15 15 16 14 29 26 31 37 38 36 40 61 58 66 75 79 73 72 81 85 84 75 67 66 73 64 64 70 68 62 70 82 88 92 86 92 79 77 75 73 68 56 55 63
15 11 14 19 19 20 16 26 17 25 25 28 29 32 31 32 42 56 60 67 70 77 78 75 77 78 82 74 84 72 65 65 71 80 82 83 82 88 83 91 86 86 80 75 74 67 54 58 69
14 18 21 18 17 21 18 20 13 16 20 28 30 31 31 31 32 43 53 60 63 69 74 75 76 76 76 78 74 78 64 70 69 72 77 84 90 85 70 90 89 83 78 78 76 72 62 66 63
13 20 22 19 20 33 21 18 23 25 26 18 21 28 30 30 30 32 42 49 60 64 69 76 74 75 79 74 76 78 74 68 74 83 85 86 84 84 81 86 87 81 81 84 77 72 61 61 63
15 20 31 34 37 40 20 18 17 25 21 19 15 16 27 28 28 30 33 42 50 57 61 66 72 74 74 74 72 70 68 78 72 69 75 83 83 88 85 84 86 85 89 89 85 70 64 64 58
20 20 35 75 88 46 31 26 16 15 12 11 12 12 17 26 28 28 29 35 41 48 56 62 64 66 71 68 70 70 48 58 72 70 68 69 80 67 91 92 88 87 87 89 78 70 73 71 62
20 25 19 63 70 70 61 21 11 12 11 11 11 14 16 15 25 28 28 28 34 41 48 56 65 65 68 68 69 72 48 52 62 65 66 64 59 71 97 100 96 94 92 94 76 74 73 80 66
18 18 32 32 56 62 26 20 20 18 13 12 12 13 18 18 17 22 26 26 28 36 44 49 55 64 67 69 73 74 57 57 63 67 68 61 73 90 99 100 100 99 100 96 84 78 80 73 71
20 23 27 29 30 48 47 30 31 35 36 14 12 12 14 17 21 23 23 24 26 30 40 49 55 65 70 72 76 79 78 70 70 74 74 76 80 86 94 100 99 99 98 93 87 81 84 75 67
18 21 24 41 36 42 61 39 15 19 22 14 14 14 14 16 18 24 30 30 28 28 34 41 54 69 64 76 75 80 72 74 76 74 77 91 94 99 99 98 97 96 94 93 88 89 89 74 77

GFSSGP_850_rhum_048.txt.gz
RH
17 20 30 31 36 39 37 27 20 20 20 44 42 53 76 83 84 93 76 60 90 92 87 71 64 78 56 54 54 53 27 8 11 12 17 14 17 21 31 28 26 22 21 31 50 58 65 70 73
15 18 26 32 34 38 34 23 22 25 42 39 55 56 71 77 73 80 84 61 77 78 75 64 77 88 73 63 60 48 18 14 14 14 13 17 36 30 28 27 23 24 26 36 53 62 71 78 73
16 19 23 38 37 36 30 20 26 45 45 38 64 73 75 64 67 63 73 76 74 69 63 58 60 58 96 69 62 44 14 12 14 13 17 23 45 28 27 25 27 29 29 36 55 65 70 69 68
26 30 28 30 31 26 21 24 36 35 48 52 70 76 65 56 76 87 88 96 76 75 65 78 77 82 83 72 64 37 12 14 14 18 25 27 32 27 27 29 33 35 32 40 54 62 61 58 64
27 31 31 32 30 24 28 32 38 53 67 58 50 52 70 46 56 90 84 99 97 94 84 50 82 79 96 87 70 24 12 15 16 24 29 27 28 28 29 34 39 41 35 34 59 60 55 63 63
26 27 37 40 30 21 29 29 38 49 58 63 57 60 55 52 66 87 76 69 74 80 86 96 94 97 99 99 57 16 13 18 21 30 32 31 30 30 33 38 43 45 45 33 48 54 56 68 66
27 31 34 28 24 19 29 39 52 60 58 69 66 68 66 90 64 78 72 78 80 84 76 79 90 84 96 98 65 25 19 20 29 37 36 32 31 32 35 41 46 49 49 41 30 44 52 61 58
21 28 28 25 21 21 34 50 52 55 74 81 78 95 87 98 76 67 72 71 82 77 81 84 97 99 97 92 83 51 20 23 35 39 39 38 34 33 39 44 50 53 53 44 36 32 50 57 60
19 28 30 22 18 21 36 46 58 52 52 59 78 91 95 97 75 81 92 89 81 85 79 89 93 73 86 98 97 68 34 28 43 40 44 46 40 37 42 48 53 56 58 54 40 45 48 58 56
20 28 24 17 14 32 42 39 51 50 58 68 84 83 95 97 88 96 97 100 99 94 97 88 88 91 75 93 83 58 39 46 47 44 46 43 39 39 45 52 56 61 61 58 55 53 45 43 43
18 23 17 15 14 33 48 55 57 53 74 68 69 77 94 94 88 90 94 94 100 100 100 95 85 73 76 76 74 65 53 56 48 46 44 41 39 45 51 56 60 60 56 56 60 58 50 51 51
16 14 15 12 17 33 50 60 72 56 56 55 66 80 90 86 100 97 95 96 89 100 98 92 90 96 77 82 82 59 55 55 48 44 41 40 45 50 54 57 58 54 58 60 60 54 49 52 47
21 17 16 14 23 48 46 69 74 86 84 85 84 81 92 80 90 98 100 100 100 98 97 95 99 100 93 81 58 55 62 53 43 44 42 45 47 54 46 42 44 57 63 63 64 66 61 60 43
20 22 20 14 19 42 60 66 49 83 82 83 88 86 88 88 91 100 98 98 100 99 99 100 100 100 92 78 42 58 57 50 43 47 52 51 49 41 41 45 44 59 68 70 71 70 72 49 42
20 22 21 18 15 39 41 48 49 76 85 89 88 95 86 90 96 100 99 97 100 100 100 100 99 100 93 54 65 72 64 57 48 60 55 45 42 44 43 52 67 68 71 73 75 76 68 45 44
23 23 27 20 18 35 33 47 45 76 75 94 76 86 81 81 89 98 98 98 97 98 98 100 100 98 68 55 69 77 72 73 72 64 70 56 60 58 53 62 73 75 76 77 77 76 67 60 57
30 33 29 25 22 37 35 46 45 59 69 84 65 68 76 84 89 93 99 98 98 100 99 100 100 94 82 80 74 86 76 66 74 76 68 57 68 54 49 67 71 78 74 78 78 77 75 70 66
36 33 28 29 29 39 46 44 46 52 58 69 58 69 79 84 78 88 96 100 99 99 100 99 97 100 94 82 88 88 75 53 66 75 51 47 45 49 59 69 78 83 81 80 79 77 76 74 60
28 30 31 24 26 41 48 46 45 61 62 69 69 78 85 79 80 84 87 88 84 94 99 100 98 86 81 85 82 68 60 58 71 64 54 49 49 46 51 54 56 79 78 80 80 80 79 68 60
28 30 30 22 25 32 41 48 48 57 63 62 66 81 83 89 85 69 80 80 80 79 95 98 100 96 91 84 75 72 62 60 65 62 55 54 46 42 49 45 50 66 78 84 81 82 80 74 63
28 30 28 22 22 25 42 42 49 49 51 57 60 59 73 77 75 72 73 67 70 77 85 96 98 91 90 87 75 68 70 74 76 74 56 51 44 48 50 65 60 65 73 80 80 81 81 79 72
31 24 22 24 29 36 24 39 53 49 56 58 55 60 69 78 67 74 64 63 56 63 72 78 82 81 78 85 74 72 71 71 66 55 52 47 44 64 63 65 61 66 78 77 76 86 84 80 76
28 27 24 25 29 33 31 37 39 42 64 59 49 51 56 59 58 70 65 53 46 51 60 63 66 65 66 70 69 72 76 79 74 62 51 44 51 57 47 43 59 73 74 73 78 83 84 80 78
22 23 26 33 39 51 40 42 44 68 51 49 48 43 45 56 60 58 57 61 54 48 53 58 60 63 70 77 86 86 84 76 74 63 59 52 45 43 61 54 72 74 77 75 72 86 85 81 80
23 35 48 51 60 61 49 52 48 32 40 39 44 44 43 42 59 65 69 70 67 60 49 53 55 60 67 71 69 67 65 67 60 53 51 51 57 64 79 80 76 79 75 77 80 90 91 85 80
29 33 55 60 75 56 56 51 40 30 28 21 36 39 44 47 47 60 61 62 63 58 53 48 47 44 47 49 46 48 53 58 58 63 69 59 62 67 71 70 64 72 77 84 91 91 94 89 87
28 35 32 72 81 82 62 54 36 28 23 21 29 34 41 45 48 50 53 57 58 59 56 48 47 46 45 47 52 57 61 66 73 81 80 69 66 70 69 71 72 68 76 86 95 98 98 95 92
24 30 46 65 75 65 64 63 55 36 21 21 19 32 37 40 43 44 52 49 56 50 50 55 54 45 48 56 56 57 63 69 73 74 76 77 72 74 73 75 70 70 82 96 99 100 100 100 99
29 32 37 50 65 72 72 56 37 33 27 28 23 17 20 30 38 40 44 45 44 46 57 53 56 60 61 58 48 47 52 61 75 82 81 77 72 75 72 81 79 80 87 96 97 95 100 100 100
26 30 35 60 58 65 78 56 28 33 31 27 21 17 21 22 24 32 34 36 44 47 49 49 47 57 58 55 57 56 69 73 79 76 79 90 84 71 66 69 85 85 91 98 96 98 100 100 99

GFSSGP_850_rhum_054.txt.gz
RH
17 20 24 30 30 41 42 34 27 29 39 54 65 70 71 76 59 57 76 93 97 82 64 53 49 49 48 49 43 43 44 50 67 71 57 49 25 36 50 39 31 26 30 74 49 29 29 24 20
15 19 25 26 35 38 31 28 25 30 50 55 60 65 65 60 88 86 74 76 97 85 70 56 52 54 56 52 45 45 47 33 33 46 49 27 29 36 27 24 24 35 76 94 76 43 31 23 27
17 20 23 39 43 37 34 24 21 32 45 52 60 70 72 63 64 77 74 66 100 99 63 57 60 61 56 52 47 40 35 26 43 46 35 31 33 30 27 27 33 39 64 53 57 46 45 51 36
29 28 27 40 35 31 26 22 22 49 41 47 66 65 64 65 60 55 63 71 99 100 79 68 64 63 59 56 49 47 35 27 42 37 31 37 35 35 37 36 40 42 47 55 58 59 59 59 42
29 28 39 36 36 30 26 22 30 54 55 56 56 51 71 64 54 58 72 68 100 100 94 76 66 60 62 60 55 45 28 33 32 32 38 41 39 40 45 42 45 43 50 56 63 65 63 62 58
27 29 41 38 32 26 24 30 42 52 55 58 60 56 52 57 62 69 72 83 86 98 78 77 68 66 69 66 51 35 53 47 53 25 43 37 36 37 39 39 44 47 54 56 61 64 61 58 58
30 36 36 34 32 25 28 46 40 53 60 59 57 70 65 64 79 76 78 73 80 78 77 82 80 85 98 95 90 68 53 62 42 29 40 30 32 34 36 52 58 55 58 55 58 62 59 59 61
22 34 33 32 28 23 26 42 53 56 61 65 68 86 76 83 97 97 88 76 85 83 82 88 86 87 99 100 99 84 44 48 46 46 36 30 35 39 51 62 64 61 56 53 54 56 58 54 56
22 34 38 29 23 19 42 52 50 57 63 69 78 79 86 96 98 98 99 99 92 96 86 87 100 94 98 91 97 93 71 54 75 47 32 35 39 40 54 61 62 59 55 54 54 55 54 56 56
28 37 30 26 20 20 34 50 46 51 57 71 72 76 80 95 100 96 96 100 99 99 98 91 67 70 84 94 93 83 72 69 71 41 40 40 44 44 42 41 44 52 54 56 54 55 55 51 46
25 29 24 20 17 17 25 50 43 55 60 56 62 62 84 100 100 99 94 98 98 99 100 95 83 75 82 91 74 65 74 75 68 37 42 44 50 54 50 43 40 32 32 48 53 51 46 39 38
21 20 18 16 18 28 50 52 59 58 60 58 53 62 80 90 94 98 99 100 99 98 99 98 99 95 85 81 81 57 65 79 75 44 45 46 54 56 54 45 40 39 39 42 51 44 38 37 40
19 18 20 20 21 30 46 61 64 66 61 64 52 63 79 85 99 93 84 99 96 100 100 91 99 94 86 87 73 66 82 89 77 59 56 46 55 56 56 54 49 42 42 43 44 42 39 38 39
22 23 25 21 24 34 51 66 68 50 64 74 66 65 77 85 97 84 88 99 99 99 99 100 99 98 94 84 82 67 67 72 85 77 65 45 53 56 55 54 51 50 52 52 48 45 45 40 39
23 25 25 21 23 45 54 53 82 51 61 73 80 83 99 96 95 90 93 100 98 99 99 100 99 94 100 88 74 66 64 65 69 64 69 47 52 56 54 53 52 56 60 63 63 60 50 43 41
26 27 30 22 42 34 42 43 33 41 68 80 82 89 92 98 98 98 98 100 99 100 100 100 99 100 100 99 85 65 72 80 68 61 72 48 51 57 57 51 52 61 64 68 68 64 66 58 44
36 35 29 26 25 46 46 46 44 71 89 89 87 91 94 99 100 96 95 97 96 98 100 100 100 99 98 99 95 95 77 64 72 77 66 47 54 60 45 43 51 61 66 69 71 64 64 57 50
39 37 34 34 26 42 50 56 47 60 91 92 86 85 78 80 81 82 81 90 93 93 100 100 100 100 95 91 94 95 71 91 84 68 50 50 56 50 43 45 63 61 70 74 71 72 71 74 74
29 33 34 32 27 26 31 35 30 56 93 94 91 85 69 68 82 92 86 86 96 94 90 96 98 100 100 100 99 95 71 91 62 51 50 56 52 47 49 76 72 72 76 62 74 76 78 79 79
32 34 37 31 26 30 36 42 44 58 74 78 83 78 62 69 81 88 80 74 88 97 99 98 97 99 100 99 89 96 76 80 64 78 65 66 52 59 74 66 65 68 66 66 74 76 79 80 81
39 39 36 32 32 31 40 43 34 45 63 62 62 61 56 58 66 75 80 67 66 81 95 96 98 99 99 99 91 81 97 86 65 97 76 63 60 62 56 67 65 78 64 56 57 68 75 79 81
42 36 33 34 36 44 36 59 35 31 53 66 66 60 55 53 63 62 66 61 60 62 78 96 99 100 100 99 74 71 100 79 65 94 89 74 59 68 62 63 61 56 63 64 64 66 72 78 84
36 33 36 35 40 39 36 44 37 47 48 52 60 57 50 48 53 53 47 50 45 56 60 80 99 98 92 91 84 85 96 84 71 81 83 68 62 64 58 54 52 51 53 52 60 71 71 76 86
30 31 35 41 48 60 42 42 46 35 40 34 43 45 43 43 46 51 51 53 48 50 54 63 90 98 100 99 89 80 82 85 81 84 78 65 57 57 57 52 51 52 45 52 65 72 75 74 80
33 41 53 53 69 68 44 54 44 35 32 35 34 35 38 40 40 49 52 52 54 41 40 56 67 78 91 95 97 97 86 77 79 83 73 62 55 48 58 56 50 49 48 47 66 64 67 73 87
42 43 63 65 70 50 57 64 44 35 32 29 28 32 35 41 39 41 42 46 45 43 33 35 48 60 65 78 84 85 82 79 73 69 65 64 60 50 59 57 62 57 51 46 57 65 79 85 82
39 46 36 67 75 81 61 48 35 31 33 31 33 32 42 38 36 33 39 40 42 43 40 31 32 42 52 55 62 71 74 74 73 72 66 59 58 62 62 61 54 50 48 53 65 80 84 88 74
32 37 53 63 69 73 60 59 42 28 27 34 29 39 32 36 38 38 38 39 38 39 40 41 35 32 34 42 44 50 56 63 68 68 63 61 58 51 49 49 48 48 56 60 80 84 82 81 87
36 39 44 49 63 59 61 56 49 37 34 34 31 22 24 32 32 30 29 32 41 42 38 39 43 42 33 30 35 39 39 44 50 53 55 56 55 54 50 50 56 60 63 83 76 81 80 80 83
30 39 48 61 54 74 73 51 31 39 36 34 30 24 21 18 21 25 28 36 36 42 45 41 42 46 42 37 33 35 43 45 46 49 51 54 54 54 51 50 59 79 88 88 79 77 81 86 89